Year,Month,Day,Hour,Minute,Value (Times are PST for temperature in C)
2008,09,23,00,00,9.90
2008,09,23,00,01,9.90
2008,09,23,00,02,9.90
2008,09,23,00,03,9.90
2008,09,23,00,04,9.90
2008,09,23,00,05,9.90
2008,09,23,00,06,9.80
2008,09,23,00,07,9.80
2008,09,23,00,08,9.80
2008,09,23,00,09,9.80
2008,09,23,00,10,9.70
2008,09,23,00,11,9.70
2008,09,23,00,12,9.70
2008,09,23,00,13,9.70
2008,09,23,00,14,9.70
2008,09,23,00,15,9.70
2008,09,23,00,16,9.70
2008,09,23,00,17,9.70
2008,09,23,00,18,9.70
2008,09,23,00,19,9.70
2008,09,23,00,20,9.70
2008,09,23,00,21,9.70
2008,09,23,00,22,9.70
2008,09,23,00,23,9.70
2008,09,23,00,24,9.70
2008,09,23,00,25,9.70
2008,09,23,00,26,9.70
2008,09,23,00,27,9.70
2008,09,23,00,28,9.70
2008,09,23,00,29,9.70
2008,09,23,00,30,9.70
2008,09,23,00,31,9.70
2008,09,23,00,32,9.70
2008,09,23,00,33,9.70
2008,09,23,00,34,9.70
2008,09,23,00,35,9.70
2008,09,23,00,36,9.70
2008,09,23,00,37,9.70
2008,09,23,00,38,9.70
2008,09,23,00,39,9.70
2008,09,23,00,40,9.70
2008,09,23,00,41,9.70
2008,09,23,00,42,9.70
2008,09,23,00,43,9.70
2008,09,23,00,44,9.70
2008,09,23,00,45,9.80
2008,09,23,00,46,9.80
2008,09,23,00,47,9.80
2008,09,23,00,48,9.80
2008,09,23,00,49,9.80
2008,09,23,00,50,9.80
2008,09,23,00,51,9.80
2008,09,23,00,52,9.80
2008,09,23,00,53,9.80
2008,09,23,00,54,9.80
2008,09,23,00,55,9.80
2008,09,23,00,56,9.70
2008,09,23,00,57,9.70
2008,09,23,00,58,9.70
2008,09,23,00,59,9.70
2008,09,23,01,00,9.70
2008,09,23,01,01,9.70
2008,09,23,01,02,9.70
2008,09,23,01,03,9.70
2008,09,23,01,04,9.60
2008,09,23,01,05,9.60
2008,09,23,01,06,9.50
2008,09,23,01,07,9.50
2008,09,23,01,08,9.40
2008,09,23,01,09,9.30
2008,09,23,01,10,9.30
2008,09,23,01,11,9.30
2008,09,23,01,12,9.30
2008,09,23,01,13,9.30
2008,09,23,01,14,9.30
2008,09,23,01,15,9.40
2008,09,23,01,16,9.30
2008,09,23,01,17,9.30
2008,09,23,01,18,9.40
2008,09,23,01,19,9.40
2008,09,23,01,20,9.40
2008,09,23,01,21,9.40
2008,09,23,01,22,9.40
2008,09,23,01,23,9.40
2008,09,23,01,24,9.40
2008,09,23,01,25,9.40
2008,09,23,01,26,9.40
2008,09,23,01,27,9.40
2008,09,23,01,28,9.40
2008,09,23,01,29,9.40
2008,09,23,01,30,9.40
2008,09,23,01,31,9.40
2008,09,23,01,32,9.40
2008,09,23,01,33,9.30
2008,09,23,01,34,9.30
2008,09,23,01,35,9.30
2008,09,23,01,36,9.20
2008,09,23,01,37,9.20
2008,09,23,01,38,9.20
2008,09,23,01,39,9.10
2008,09,23,01,40,9.10
2008,09,23,01,41,9.00
2008,09,23,01,42,9.00
2008,09,23,01,43,8.90
2008,09,23,01,44,8.90
2008,09,23,01,45,8.90
2008,09,23,01,46,8.90
2008,09,23,01,47,8.90
2008,09,23,01,48,8.90
2008,09,23,01,49,8.90
2008,09,23,01,50,8.80
2008,09,23,01,51,8.80
2008,09,23,01,52,8.80
2008,09,23,01,53,8.70
2008,09,23,01,54,8.70
2008,09,23,01,55,8.70
2008,09,23,01,56,8.70
2008,09,23,01,57,8.60
2008,09,23,01,58,8.50
2008,09,23,01,59,8.50
2008,09,23,02,00,8.40
2008,09,23,02,01,8.30
2008,09,23,02,02,8.20
2008,09,23,02,03,8.20
2008,09,23,02,04,8.10
2008,09,23,02,05,8.00
2008,09,23,02,06,7.90
2008,09,23,02,07,7.80
2008,09,23,02,08,7.70
2008,09,23,02,09,7.60
2008,09,23,02,10,7.50
2008,09,23,02,11,7.50
2008,09,23,02,12,7.50
2008,09,23,02,13,7.50
2008,09,23,02,14,7.50
2008,09,23,02,15,7.50
2008,09,23,02,16,7.60
2008,09,23,02,17,7.60
2008,09,23,02,18,7.60
2008,09,23,02,19,7.60
2008,09,23,02,20,7.70
2008,09,23,02,21,7.80
2008,09,23,02,22,7.80
2008,09,23,02,23,7.80
2008,09,23,02,24,7.80
2008,09,23,02,25,7.80
2008,09,23,02,26,7.80
2008,09,23,02,27,7.80
2008,09,23,02,28,7.80
2008,09,23,02,29,7.80
2008,09,23,02,30,7.80
2008,09,23,02,31,7.70
2008,09,23,02,32,7.70
2008,09,23,02,33,7.60
2008,09,23,02,34,7.60
2008,09,23,02,35,7.50
2008,09,23,02,36,7.50
2008,09,23,02,37,7.40
2008,09,23,02,38,7.30
2008,09,23,02,39,7.20
2008,09,23,02,40,7.10
2008,09,23,02,41,7.10
2008,09,23,02,42,7.00
2008,09,23,02,43,7.00
2008,09,23,02,44,7.10
2008,09,23,02,45,7.10
2008,09,23,02,46,7.10
2008,09,23,02,47,7.10
2008,09,23,02,48,7.10
2008,09,23,02,49,7.20
2008,09,23,02,50,7.20
2008,09,23,02,51,7.30
2008,09,23,02,52,7.30
2008,09,23,02,53,7.30
2008,09,23,02,54,7.30
2008,09,23,02,55,7.30
2008,09,23,02,56,7.30
2008,09,23,02,57,7.30
2008,09,23,02,58,7.30
2008,09,23,02,59,7.30
2008,09,23,03,00,7.20
2008,09,23,03,01,7.20
2008,09,23,03,02,7.10
2008,09,23,03,03,7.10
2008,09,23,03,04,7.10
2008,09,23,03,05,7.10
2008,09,23,03,06,7.00
2008,09,23,03,07,7.00
2008,09,23,03,08,6.90
2008,09,23,03,09,6.90
2008,09,23,03,10,6.90
2008,09,23,03,11,6.80
2008,09,23,03,12,6.80
2008,09,23,03,13,6.80
2008,09,23,03,14,6.80
2008,09,23,03,15,6.80
2008,09,23,03,16,6.80
2008,09,23,03,17,6.80
2008,09,23,03,18,6.80
2008,09,23,03,19,6.80
2008,09,23,03,20,6.80
2008,09,23,03,21,6.70
2008,09,23,03,22,6.70
2008,09,23,03,23,6.70
2008,09,23,03,24,6.60
2008,09,23,03,25,6.60
2008,09,23,03,26,6.50
2008,09,23,03,27,6.40
2008,09,23,03,28,6.40
2008,09,23,03,29,6.40
2008,09,23,03,30,6.30
2008,09,23,03,31,6.30
2008,09,23,03,32,6.30
2008,09,23,03,33,6.20
2008,09,23,03,34,6.20
2008,09,23,03,35,6.20
2008,09,23,03,36,6.20
2008,09,23,03,37,6.10
2008,09,23,03,38,6.10
2008,09,23,03,39,6.20
2008,09,23,03,40,6.20
2008,09,23,03,41,6.20
2008,09,23,03,42,6.20
2008,09,23,03,43,6.20
2008,09,23,03,44,6.20
2008,09,23,03,45,6.20
2008,09,23,03,46,5.80
2008,09,23,03,47,5.70
2008,09,23,03,48,5.70
2008,09,23,03,49,5.70
2008,09,23,03,50,5.60
2008,09,23,03,51,5.50
2008,09,23,03,52,5.50
2008,09,23,03,53,5.50
2008,09,23,03,54,5.50
2008,09,23,03,55,5.50
2008,09,23,03,56,5.50
2008,09,23,03,57,5.60
2008,09,23,03,58,5.70
2008,09,23,03,59,5.70
2008,09,23,04,00,5.70
2008,09,23,04,01,5.70
2008,09,23,04,02,5.70
2008,09,23,04,03,5.70
2008,09,23,04,04,5.70
2008,09,23,04,05,5.70
2008,09,23,04,06,5.70
2008,09,23,04,07,5.70
2008,09,23,04,08,5.70
2008,09,23,04,09,5.70
2008,09,23,04,10,5.70
2008,09,23,04,11,5.70
2008,09,23,04,12,5.70
2008,09,23,04,13,5.70
2008,09,23,04,14,5.70
2008,09,23,04,15,5.70
2008,09,23,04,16,5.70
2008,09,23,04,17,5.70
2008,09,23,04,18,5.70
2008,09,23,04,19,5.70
2008,09,23,04,20,5.70
2008,09,23,04,21,5.70
2008,09,23,04,22,5.60
2008,09,23,04,23,5.60
2008,09,23,04,24,5.60
2008,09,23,04,25,5.50
2008,09,23,04,26,5.50
2008,09,23,04,27,5.40
2008,09,23,04,28,5.40
2008,09,23,04,29,5.40
2008,09,23,04,30,5.30
2008,09,23,04,31,5.30
2008,09,23,04,32,5.30
2008,09,23,04,33,5.30
2008,09,23,04,34,5.20
2008,09,23,04,35,5.20
2008,09,23,04,36,5.10
2008,09,23,04,37,5.10
2008,09,23,04,38,5.10
2008,09,23,04,39,5.10
2008,09,23,04,40,5.10
2008,09,23,04,41,5.10
2008,09,23,04,42,5.10
2008,09,23,04,43,5.10
2008,09,23,04,44,5.00
2008,09,23,04,45,4.90
2008,09,23,04,46,4.80
2008,09,23,04,47,4.80
2008,09,23,04,48,4.70
2008,09,23,04,49,4.70
2008,09,23,04,50,4.60
2008,09,23,04,51,4.60
2008,09,23,04,52,4.60
2008,09,23,04,53,4.60
2008,09,23,04,54,4.60
2008,09,23,04,55,4.60
2008,09,23,04,56,4.60
2008,09,23,04,57,4.60
2008,09,23,04,58,4.60
2008,09,23,04,59,4.60
2008,09,23,05,00,4.60
2008,09,23,05,01,4.70
2008,09,23,05,02,4.80
2008,09,23,05,03,4.90
2008,09,23,05,04,4.90
2008,09,23,05,05,4.90
2008,09,23,05,06,4.90
2008,09,23,05,07,4.80
2008,09,23,05,08,4.80
2008,09,23,05,09,4.60
2008,09,23,05,10,4.50
2008,09,23,05,11,4.30
2008,09,23,05,12,4.20
2008,09,23,05,13,4.20
2008,09,23,05,14,4.20
2008,09,23,05,15,4.20
2008,09,23,05,16,4.20
2008,09,23,05,17,4.20
2008,09,23,05,18,4.20
2008,09,23,05,19,4.30
2008,09,23,05,20,4.30
2008,09,23,05,21,4.20
2008,09,23,05,22,4.20
2008,09,23,05,23,4.20
2008,09,23,05,24,4.20
2008,09,23,05,25,4.20
2008,09,23,05,26,4.20
2008,09,23,05,27,4.20
2008,09,23,05,28,4.30
2008,09,23,05,29,4.30
2008,09,23,05,30,4.30
2008,09,23,05,31,4.30
2008,09,23,05,32,4.30
2008,09,23,05,33,4.20
2008,09,23,05,34,4.20
2008,09,23,05,35,4.10
2008,09,23,05,36,4.10
2008,09,23,05,37,4.10
2008,09,23,05,38,4.10
2008,09,23,05,39,4.10
2008,09,23,05,40,4.20
2008,09,23,05,41,4.20
2008,09,23,05,42,4.30
2008,09,23,05,43,4.40
2008,09,23,05,44,4.40
2008,09,23,05,45,4.40
2008,09,23,05,46,4.50
2008,09,23,05,47,4.60
2008,09,23,05,48,4.60
2008,09,23,05,49,4.70
2008,09,23,05,50,4.70
2008,09,23,05,51,4.70
2008,09,23,05,52,4.70
2008,09,23,05,53,4.70
2008,09,23,05,54,4.70
2008,09,23,05,55,4.70
2008,09,23,05,56,4.80
2008,09,23,05,57,4.80
2008,09,23,05,58,4.80
2008,09,23,05,59,4.70
2008,09,23,06,00,4.70
2008,09,23,06,01,4.70
2008,09,23,06,02,4.70
2008,09,23,06,03,4.70
2008,09,23,06,04,4.60
2008,09,23,06,05,4.50
2008,09,23,06,06,4.50
2008,09,23,06,07,4.40
2008,09,23,06,08,4.30
2008,09,23,06,09,4.40
2008,09,23,06,10,4.40
2008,09,23,06,11,4.50
2008,09,23,06,12,4.60
2008,09,23,06,13,4.60
2008,09,23,06,14,4.60
2008,09,23,06,15,4.60
2008,09,23,06,16,4.60
2008,09,23,06,17,4.50
2008,09,23,06,18,4.40
2008,09,23,06,19,4.30
2008,09,23,06,20,4.20
2008,09,23,06,21,4.20
2008,09,23,06,22,4.10
2008,09,23,06,23,4.10
2008,09,23,06,24,4.20
2008,09,23,06,25,4.20
2008,09,23,06,26,4.20
2008,09,23,06,27,4.20
2008,09,23,06,28,4.20
2008,09,23,06,29,4.20
2008,09,23,06,30,4.20
2008,09,23,06,31,4.20
2008,09,23,06,32,4.30
2008,09,23,06,33,4.40
2008,09,23,06,34,4.40
2008,09,23,06,35,4.50
2008,09,23,06,36,4.50
2008,09,23,06,37,4.50
2008,09,23,06,38,4.50
2008,09,23,06,39,4.50
2008,09,23,06,40,4.50
2008,09,23,06,41,4.50
2008,09,23,06,42,4.60
2008,09,23,06,43,4.60
2008,09,23,06,44,4.60
2008,09,23,06,45,4.60
2008,09,23,06,46,4.60
2008,09,23,06,47,4.60
2008,09,23,06,48,4.60
2008,09,23,06,49,4.60
2008,09,23,06,50,4.60
2008,09,23,06,51,4.60
2008,09,23,06,52,4.60
2008,09,23,06,53,4.60
2008,09,23,06,54,4.60
2008,09,23,06,55,4.60
2008,09,23,06,56,4.60
2008,09,23,06,57,4.60
2008,09,23,06,58,4.50
2008,09,23,06,59,4.30
2008,09,23,07,00,4.10
2008,09,23,07,01,3.90
2008,09,23,07,02,3.80
2008,09,23,07,03,3.70
2008,09,23,07,04,3.70
2008,09,23,07,05,3.80
2008,09,23,07,06,3.80
2008,09,23,07,07,3.90
2008,09,23,07,08,4.00
2008,09,23,07,09,4.00
2008,09,23,07,10,4.00
2008,09,23,07,11,4.10
2008,09,23,07,12,4.10
2008,09,23,07,13,4.20
2008,09,23,07,14,4.20
2008,09,23,07,15,4.20
2008,09,23,07,16,4.20
2008,09,23,07,17,4.20
2008,09,23,07,18,4.30
2008,09,23,07,19,4.30
2008,09,23,07,20,4.30
2008,09,23,07,21,4.20
2008,09,23,07,22,4.20
2008,09,23,07,23,4.20
2008,09,23,07,24,4.20
2008,09,23,07,25,4.20
2008,09,23,07,26,4.20
2008,09,23,07,27,4.20
2008,09,23,07,28,4.20
2008,09,23,07,29,4.20
2008,09,23,07,30,4.20
2008,09,23,07,31,4.20
2008,09,23,07,32,4.20
2008,09,23,07,33,4.20
2008,09,23,07,34,4.20
2008,09,23,07,35,4.20
2008,09,23,07,36,4.30
2008,09,23,07,37,4.30
2008,09,23,07,38,4.40
2008,09,23,07,39,4.50
2008,09,23,07,40,4.50
2008,09,23,07,41,4.60
2008,09,23,07,42,4.60
2008,09,23,07,43,4.60
2008,09,23,07,44,4.70
2008,09,23,07,45,4.70
2008,09,23,07,46,4.80
2008,09,23,07,47,4.80
2008,09,23,07,48,4.90
2008,09,23,07,49,4.90
2008,09,23,07,50,4.90
2008,09,23,07,51,4.90
2008,09,23,07,52,4.90
2008,09,23,07,53,4.90
2008,09,23,07,54,5.00
2008,09,23,07,55,5.10
2008,09,23,07,56,5.10
2008,09,23,07,57,5.10
2008,09,23,07,58,5.10
2008,09,23,07,59,5.10
2008,09,23,08,00,5.20
2008,09,23,08,01,5.20
2008,09,23,08,02,5.20
2008,09,23,08,03,5.30
2008,09,23,08,04,5.30
2008,09,23,08,05,5.30
2008,09,23,08,06,5.40
2008,09,23,08,07,5.50
2008,09,23,08,08,5.50
2008,09,23,08,09,5.60
2008,09,23,08,10,5.60
2008,09,23,08,11,5.70
2008,09,23,08,12,5.70
2008,09,23,08,13,5.70
2008,09,23,08,14,5.70
2008,09,23,08,15,5.70
2008,09,23,08,16,5.70
2008,09,23,08,17,5.70
2008,09,23,08,18,5.70
2008,09,23,08,19,5.70
2008,09,23,08,20,5.80
2008,09,23,08,21,5.80
2008,09,23,08,22,5.80
2008,09,23,08,23,5.90
2008,09,23,08,24,5.90
2008,09,23,08,25,5.90
2008,09,23,08,26,6.00
2008,09,23,08,27,6.00
2008,09,23,08,28,6.00
2008,09,23,08,29,6.10
2008,09,23,08,30,6.10
2008,09,23,08,31,6.20
2008,09,23,08,32,6.20
2008,09,23,08,33,6.20
2008,09,23,08,34,6.30
2008,09,23,08,35,6.30
2008,09,23,08,36,6.40
2008,09,23,08,37,6.40
2008,09,23,08,38,6.40
2008,09,23,08,39,6.40
2008,09,23,08,40,6.50
2008,09,23,08,41,6.60
2008,09,23,08,42,6.60
2008,09,23,08,43,6.60
2008,09,23,08,44,6.70
2008,09,23,08,45,6.80
2008,09,23,08,46,6.80
2008,09,23,08,47,6.80
2008,09,23,08,48,6.90
2008,09,23,08,49,7.00
2008,09,23,08,50,7.10
2008,09,23,08,51,7.20
2008,09,23,08,52,7.30
2008,09,23,08,53,7.50
2008,09,23,08,54,7.60
2008,09,23,08,55,7.70
2008,09,23,08,56,7.80
2008,09,23,08,57,7.90
2008,09,23,08,58,8.00
2008,09,23,08,59,8.10
2008,09,23,09,00,8.20
2008,09,23,09,01,8.20
2008,09,23,09,02,8.30
2008,09,23,09,03,8.30
2008,09,23,09,04,8.40
2008,09,23,09,05,8.50
2008,09,23,09,06,8.50
2008,09,23,09,07,8.60
2008,09,23,09,08,8.70
2008,09,23,09,09,8.70
2008,09,23,09,10,8.80
2008,09,23,09,11,8.80
2008,09,23,09,12,8.90
2008,09,23,09,13,8.90
2008,09,23,09,14,9.00
2008,09,23,09,15,9.00
2008,09,23,09,16,9.10
2008,09,23,09,17,9.10
2008,09,23,09,18,9.10
2008,09,23,09,19,9.20
2008,09,23,09,20,9.20
2008,09,23,09,21,9.30
2008,09,23,09,22,9.30
2008,09,23,09,23,9.40
2008,09,23,09,24,9.50
2008,09,23,09,25,9.50
2008,09,23,09,26,9.60
2008,09,23,09,27,9.70
2008,09,23,09,28,9.70
2008,09,23,09,29,9.80
2008,09,23,09,30,9.90
2008,09,23,09,31,9.90
2008,09,23,09,32,9.90
2008,09,23,09,33,9.90
2008,09,23,09,34,9.90
2008,09,23,09,35,10.00
2008,09,23,09,36,10.10
2008,09,23,09,37,10.20
2008,09,23,09,38,10.30
2008,09,23,09,39,10.40
2008,09,23,09,40,10.40
2008,09,23,09,41,10.40
2008,09,23,09,42,10.40
2008,09,23,09,43,10.40
2008,09,23,09,44,10.40
2008,09,23,09,45,10.40
2008,09,23,09,46,10.40
2008,09,23,09,47,10.40
2008,09,23,09,48,10.40
2008,09,23,09,49,10.40
2008,09,23,09,50,10.50
2008,09,23,09,51,10.60
2008,09,23,09,52,10.60
2008,09,23,09,53,10.70
2008,09,23,09,54,10.80
2008,09,23,09,55,10.90
2008,09,23,09,56,10.90
2008,09,23,09,57,10.90
2008,09,23,09,58,10.90
2008,09,23,09,59,11.10
2008,09,23,10,00,11.10
2008,09,23,10,01,11.20
2008,09,23,10,02,11.30
2008,09,23,10,03,11.30
2008,09,23,10,04,11.40
2008,09,23,10,05,11.40
2008,09,23,10,06,11.60
2008,09,23,10,07,11.60
2008,09,23,10,08,11.70
2008,09,23,10,09,11.80
2008,09,23,10,10,11.80
2008,09,23,10,11,11.80
2008,09,23,10,12,11.80
2008,09,23,10,13,11.80
2008,09,23,10,14,11.90
2008,09,23,10,15,11.90
2008,09,23,10,16,12.00
2008,09,23,10,17,12.00
2008,09,23,10,18,12.10
2008,09,23,10,19,12.10
2008,09,23,10,20,12.10
2008,09,23,10,21,12.10
2008,09,23,10,22,12.20
2008,09,23,10,23,12.30
2008,09,23,10,24,12.30
2008,09,23,10,25,12.30
2008,09,23,10,26,12.30
2008,09,23,10,27,12.30
2008,09,23,10,28,12.40
2008,09,23,10,29,12.40
2008,09,23,10,30,12.50
2008,09,23,10,31,12.50
2008,09,23,10,32,12.50
2008,09,23,10,33,12.50
2008,09,23,10,34,12.60
2008,09,23,10,35,12.60
2008,09,23,10,36,12.70
2008,09,23,10,37,12.80
2008,09,23,10,38,12.80
2008,09,23,10,39,12.80
2008,09,23,10,40,12.90
2008,09,23,10,41,12.90
2008,09,23,10,42,12.90
2008,09,23,10,43,12.90
2008,09,23,10,44,12.90
2008,09,23,10,45,12.90
2008,09,23,10,46,12.90
2008,09,23,10,47,12.80
2008,09,23,10,48,12.80
2008,09,23,10,49,12.90
2008,09,23,10,50,13.00
2008,09,23,10,51,13.10
2008,09,23,10,52,13.10
2008,09,23,10,53,13.10
2008,09,23,10,54,13.10
2008,09,23,10,55,13.00
2008,09,23,10,56,13.00
2008,09,23,10,57,13.00
2008,09,23,10,58,13.10
2008,09,23,10,59,13.10
2008,09,23,11,00,13.20
2008,09,23,11,01,13.20
2008,09,23,11,02,13.10
2008,09,23,11,03,13.10
2008,09,23,11,04,13.00
2008,09,23,11,05,13.00
2008,09,23,11,06,13.00
2008,09,23,11,07,12.80
2008,09,23,11,08,12.70
2008,09,23,11,09,12.60
2008,09,23,11,10,12.60
2008,09,23,11,11,12.70
2008,09,23,11,12,12.80
2008,09,23,11,13,12.80
2008,09,23,11,14,12.70
2008,09,23,11,15,12.70
2008,09,23,11,16,12.80
2008,09,23,11,17,12.80
2008,09,23,11,18,12.90
2008,09,23,11,19,12.90
2008,09,23,11,20,13.00
2008,09,23,11,21,13.10
2008,09,23,11,22,13.10
2008,09,23,11,23,13.10
2008,09,23,11,24,13.10
2008,09,23,11,25,13.10
2008,09,23,11,26,13.10
2008,09,23,11,27,13.10
2008,09,23,11,28,13.20
2008,09,23,11,29,13.30
2008,09,23,11,30,13.50
2008,09,23,11,31,13.60
2008,09,23,11,32,13.70
2008,09,23,11,33,13.70
2008,09,23,11,34,13.70
2008,09,23,11,35,13.80
2008,09,23,11,36,13.90
2008,09,23,11,37,14.00
2008,09,23,11,38,14.00
2008,09,23,11,39,14.10
2008,09,23,11,40,14.20
2008,09,23,11,41,14.20
2008,09,23,11,42,14.20
2008,09,23,11,43,14.30
2008,09,23,11,44,14.30
2008,09,23,11,45,14.30
2008,09,23,11,46,14.30
2008,09,23,11,47,14.30
2008,09,23,11,48,14.30
2008,09,23,11,49,14.30
2008,09,23,11,50,14.20
2008,09,23,11,51,14.10
2008,09,23,11,52,14.00
2008,09,23,11,53,13.90
2008,09,23,11,54,13.80
2008,09,23,11,55,13.70
2008,09,23,11,56,13.70
2008,09,23,11,57,13.70
2008,09,23,11,58,13.80
2008,09,23,11,59,13.80
2008,09,23,12,00,13.80
2008,09,23,12,01,13.80
2008,09,23,12,02,13.70
2008,09,23,12,03,13.70
2008,09,23,12,04,13.70
2008,09,23,12,05,13.70
2008,09,23,12,06,13.70
2008,09,23,12,07,13.70
2008,09,23,12,08,13.70
2008,09,23,12,09,13.80
2008,09,23,12,10,13.70
2008,09,23,12,11,13.80
2008,09,23,12,12,13.80
2008,09,23,12,13,13.80
2008,09,23,12,14,13.80
2008,09,23,12,15,13.90
2008,09,23,12,16,13.90
2008,09,23,12,17,14.00
2008,09,23,12,18,14.00
2008,09,23,12,19,14.00
2008,09,23,12,20,14.00
2008,09,23,12,21,14.00
2008,09,23,12,22,14.00
2008,09,23,12,23,14.00
2008,09,23,12,24,14.10
2008,09,23,12,25,14.10
2008,09,23,12,26,14.10
2008,09,23,12,27,14.10
2008,09,23,12,28,14.20
2008,09,23,12,29,14.20
2008,09,23,12,30,14.20
2008,09,23,12,31,14.20
2008,09,23,12,32,14.20
2008,09,23,12,33,14.10
2008,09,23,12,34,14.00
2008,09,23,12,35,13.90
2008,09,23,12,36,13.90
2008,09,23,12,37,13.90
2008,09,23,12,38,13.80
2008,09,23,12,39,13.70
2008,09,23,12,40,13.80
2008,09,23,12,41,13.80
2008,09,23,12,42,13.80
2008,09,23,12,43,13.80
2008,09,23,12,44,13.80
2008,09,23,12,45,13.70
2008,09,23,12,46,13.70
2008,09,23,12,47,13.80
2008,09,23,12,48,13.90
2008,09,23,12,49,13.90
2008,09,23,12,50,14.00
2008,09,23,12,51,14.10
2008,09,23,12,52,14.10
2008,09,23,12,53,14.10
2008,09,23,12,54,14.10
2008,09,23,12,55,14.20
2008,09,23,12,56,14.40
2008,09,23,12,57,14.40
2008,09,23,12,58,14.40
2008,09,23,12,59,14.40
2008,09,23,13,00,14.40
2008,09,23,13,01,14.30
2008,09,23,13,02,14.20
2008,09,23,13,03,14.10
2008,09,23,13,04,14.00
2008,09,23,13,05,14.00
2008,09,23,13,06,14.00
2008,09,23,13,07,14.10
2008,09,23,13,08,14.10
2008,09,23,13,09,14.10
2008,09,23,13,10,14.10
2008,09,23,13,11,14.20
2008,09,23,13,12,14.20
2008,09,23,13,13,14.20
2008,09,23,13,14,14.10
2008,09,23,13,15,14.00
2008,09,23,13,16,14.10
2008,09,23,13,17,14.10
2008,09,23,13,18,14.20
2008,09,23,13,19,14.20
2008,09,23,13,20,14.30
2008,09,23,13,21,14.30
2008,09,23,13,22,14.40
2008,09,23,13,23,14.40
2008,09,23,13,24,14.30
2008,09,23,13,25,14.30
2008,09,23,13,26,14.40
2008,09,23,13,27,14.50
2008,09,23,13,28,14.60
2008,09,23,13,29,14.70
2008,09,23,13,30,14.80
2008,09,23,13,31,14.80
2008,09,23,13,32,14.80
2008,09,23,13,33,14.90
2008,09,23,13,34,15.00
2008,09,23,13,35,15.00
2008,09,23,13,36,15.00
2008,09,23,13,37,15.00
2008,09,23,13,38,15.00
2008,09,23,13,39,14.90
2008,09,23,13,40,14.90
2008,09,23,13,41,14.80
2008,09,23,13,42,14.80
2008,09,23,13,43,14.80
2008,09,23,13,44,14.80
2008,09,23,13,45,14.80
2008,09,23,13,46,14.80
2008,09,23,13,47,14.80
2008,09,23,13,48,14.80
2008,09,23,13,49,14.80
2008,09,23,13,50,14.80
2008,09,23,13,51,14.80
2008,09,23,13,52,14.80
2008,09,23,13,53,14.80
2008,09,23,13,54,14.90
2008,09,23,13,55,14.90
2008,09,23,13,56,15.00
2008,09,23,13,57,15.00
2008,09,23,13,58,15.00
2008,09,23,13,59,14.90
2008,09,23,14,00,14.90
2008,09,23,14,01,14.90
2008,09,23,14,02,14.90
2008,09,23,14,03,14.90
2008,09,23,14,04,15.10
2008,09,23,14,05,15.10
2008,09,23,14,06,15.10
2008,09,23,14,07,15.10
2008,09,23,14,08,15.10
2008,09,23,14,09,15.00
2008,09,23,14,10,14.90
2008,09,23,14,11,14.80
2008,09,23,14,12,14.80
2008,09,23,14,13,14.90
2008,09,23,14,14,14.90
2008,09,23,14,15,14.90
2008,09,23,14,16,14.90
2008,09,23,14,17,15.00
2008,09,23,14,18,15.10
2008,09,23,14,19,15.10
2008,09,23,14,20,15.20
2008,09,23,14,21,15.30
2008,09,23,14,22,15.30
2008,09,23,14,23,15.30
2008,09,23,14,24,15.30
2008,09,23,14,25,15.40
2008,09,23,14,26,15.40
2008,09,23,14,27,15.40
2008,09,23,14,28,15.50
2008,09,23,14,29,15.60
2008,09,23,14,30,15.60
2008,09,23,14,31,15.70
2008,09,23,14,32,15.70
2008,09,23,14,33,15.60
2008,09,23,14,34,15.60
2008,09,23,14,35,15.60
2008,09,23,14,36,15.60
2008,09,23,14,37,15.60
2008,09,23,14,38,15.60
2008,09,23,14,39,15.70
2008,09,23,14,40,15.80
2008,09,23,14,41,15.80
2008,09,23,14,42,15.80
2008,09,23,14,43,15.80
2008,09,23,14,44,15.80
2008,09,23,14,45,15.80
2008,09,23,14,46,15.80
2008,09,23,14,47,15.80
2008,09,23,14,48,15.80
2008,09,23,14,49,15.80
2008,09,23,14,50,15.80
2008,09,23,14,51,15.80
2008,09,23,14,52,15.80
2008,09,23,14,53,15.80
2008,09,23,14,54,15.80
2008,09,23,14,55,15.70
2008,09,23,14,56,15.70
2008,09,23,14,57,15.70
2008,09,23,14,58,15.80
2008,09,23,14,59,15.80
2008,09,23,15,00,15.80
2008,09,23,15,01,15.80
2008,09,23,15,02,15.80
2008,09,23,15,03,15.80
2008,09,23,15,04,15.70
2008,09,23,15,05,15.60
2008,09,23,15,06,15.50
2008,09,23,15,07,15.50
2008,09,23,15,08,15.50
2008,09,23,15,09,15.40
2008,09,23,15,10,15.40
2008,09,23,15,11,15.40
2008,09,23,15,12,15.40
2008,09,23,15,13,15.40
2008,09,23,15,14,15.40
2008,09,23,15,15,15.30
2008,09,23,15,16,15.30
2008,09,23,15,17,15.30
2008,09,23,15,18,15.30
2008,09,23,15,19,15.20
2008,09,23,15,20,15.30
2008,09,23,15,21,15.30
2008,09,23,15,22,15.20
2008,09,23,15,23,15.20
2008,09,23,15,24,15.20
2008,09,23,15,25,15.20
2008,09,23,15,26,15.20
2008,09,23,15,27,15.20
2008,09,23,15,28,15.20
2008,09,23,15,29,15.20
2008,09,23,15,30,15.10
2008,09,23,15,31,15.10
2008,09,23,15,32,15.10
2008,09,23,15,33,15.10
2008,09,23,15,34,15.10
2008,09,23,15,35,15.10
2008,09,23,15,36,15.10
2008,09,23,15,37,15.10
2008,09,23,15,38,15.10
2008,09,23,15,39,15.10
2008,09,23,15,40,15.10
2008,09,23,15,41,15.00
2008,09,23,15,42,15.00
2008,09,23,15,43,15.00
2008,09,23,15,44,15.00
2008,09,23,15,45,15.00
2008,09,23,15,46,14.90
2008,09,23,15,47,14.90
2008,09,23,15,48,15.00
2008,09,23,15,49,15.00
2008,09,23,15,50,15.00
2008,09,23,15,51,15.00
2008,09,23,15,52,15.00
2008,09,23,15,53,15.10
2008,09,23,15,54,15.10
2008,09,23,15,55,15.10
2008,09,23,15,56,15.10
2008,09,23,15,57,15.10
2008,09,23,15,58,15.00
2008,09,23,15,59,15.00
2008,09,23,16,00,14.90
2008,09,23,16,01,14.90
2008,09,23,16,02,14.90
2008,09,23,16,03,14.90
2008,09,23,16,04,14.90
2008,09,23,16,05,15.00
2008,09,23,16,06,15.00
2008,09,23,16,07,15.00
2008,09,23,16,08,14.90
2008,09,23,16,09,14.90
2008,09,23,16,10,14.90
2008,09,23,16,11,14.90
2008,09,23,16,12,14.90
2008,09,23,16,13,14.90
2008,09,23,16,14,14.90
2008,09,23,16,15,14.90
2008,09,23,16,16,14.90
2008,09,23,16,17,14.90
2008,09,23,16,18,14.90
2008,09,23,16,19,14.90
2008,09,23,16,20,14.90
2008,09,23,16,21,14.90
2008,09,23,16,22,14.90
2008,09,23,16,23,14.90
2008,09,23,16,24,14.90
2008,09,23,16,25,14.90
2008,09,23,16,26,14.80
2008,09,23,16,27,14.80
2008,09,23,16,28,14.80
2008,09,23,16,29,14.80
2008,09,23,16,30,14.80
2008,09,23,16,31,14.80
2008,09,23,16,32,14.90
2008,09,23,16,33,14.90
2008,09,23,16,34,14.90
2008,09,23,16,35,14.90
2008,09,23,16,36,14.90
2008,09,23,16,37,14.90
2008,09,23,16,38,14.90
2008,09,23,16,39,14.90
2008,09,23,16,40,14.90
2008,09,23,16,41,14.90
2008,09,23,16,42,14.80
2008,09,23,16,43,14.70
2008,09,23,16,44,14.60
2008,09,23,16,45,14.50
2008,09,23,16,46,14.50
2008,09,23,16,47,14.50
2008,09,23,16,48,14.50
2008,09,23,16,49,14.40
2008,09,23,16,50,14.40
2008,09,23,16,51,14.40
2008,09,23,16,52,14.40
2008,09,23,16,53,14.50
2008,09,23,16,54,14.50
2008,09,23,16,55,14.50
2008,09,23,16,56,14.60
2008,09,23,16,57,14.60
2008,09,23,16,58,14.60
2008,09,23,16,59,14.70
2008,09,23,17,00,14.80
2008,09,23,17,01,14.80
2008,09,23,17,02,14.80
2008,09,23,17,03,14.80
2008,09,23,17,04,14.80
2008,09,23,17,05,14.80
2008,09,23,17,06,14.80
2008,09,23,17,07,14.80
2008,09,23,17,08,14.80
2008,09,23,17,09,14.80
2008,09,23,17,10,14.80
2008,09,23,17,11,14.80
2008,09,23,17,12,14.80
2008,09,23,17,13,14.80
2008,09,23,17,14,14.80
2008,09,23,17,15,14.80
2008,09,23,17,16,14.80
2008,09,23,17,17,14.80
2008,09,23,17,18,14.80
2008,09,23,17,19,14.80
2008,09,23,17,20,14.70
2008,09,23,17,21,14.70
2008,09,23,17,22,14.70
2008,09,23,17,23,14.70
2008,09,23,17,24,14.70
2008,09,23,17,25,14.80
2008,09,23,17,26,14.80
2008,09,23,17,27,14.80
2008,09,23,17,28,14.80
2008,09,23,17,29,14.80
2008,09,23,17,30,14.80
2008,09,23,17,31,14.80
2008,09,23,17,32,14.80
2008,09,23,17,33,14.70
2008,09,23,17,34,14.70
2008,09,23,17,35,14.70
2008,09,23,17,36,14.70
2008,09,23,17,37,14.70
2008,09,23,17,38,14.70
2008,09,23,17,39,14.70
2008,09,23,17,40,14.70
2008,09,23,17,41,14.60
2008,09,23,17,42,14.60
2008,09,23,17,43,14.60
2008,09,23,17,44,14.60